Flag for Canada Weather past 2 weeks in Kamloops, British Columbia, Canada

Now
45 °F

Overcast.


Feels Like: 40 °F
Forecast: 44 / 53 °F
Wind: 9 mph from Southeast

Location: Kamloops

Current Time: Oct 25, 2014 at 7:46:22 AM

Latest Report: Oct 25, 2014 at 7:00 AM


Visibility: 40 mi

Pressure: 29.73 "Hg

Humidity: 76%

Dew point: 37 °F

Location of KamloopsLocation

Historic Weather in Kamloops — Graph

°F

Kamloops temperature yesterday

Maximum temperature yesterday: 55 °F (at 3:00 PM)
Minimum temperature yesterday: 34 °F (at 4:00 AM)
Average temperature yesterday: 45 °F

Past Weeks' High & Low Weather Summary

 TemperatureHumidityPressure
High73 °F (Oct 10, 5:00 PM)94% (Oct 10, 9:00 AM)30.18 "Hg (Oct 10, 9:00 AM)
Low34 °F (Oct 24, 4:00 AM)28% (Oct 14, 2:00 PM)29.48 "Hg (Oct 23, 12:00 AM)
Average54 °F63%29.82 "Hg
* Reported Oct 10 6:00 AM — Oct 25 6:00 AM, Kamloops, Weather by CustomWeather, © 2014

Note: Actual official high and low records may vary slightly from our data, if they occured in-between our weather recording intervals... More about our weather records

Advertising

Kamloops weather history for previous 24 hours

 ConditionsComfort  
Time TempWeatherWind HumidityBarometerVisibility
6:00 AM
Oct 25
45 °FLight rain. Overcast.9 mph76%29.78 "Hg40 mi
5:00 AM45 °FOvercast.10 mph76%29.81 "Hg40 mi
4:00 AM45 °FSprinkles. Overcast.10 mph76%29.86 "Hg40 mi
3:00 AM46 °FSprinkles. Overcast.8 mph66%29.90 "Hg40 mi
2:00 AM46 °FMostly cloudy.8 mph62%29.94 "Hg40 mi
1:00 AM46 °FOvercast.9 mph62%29.97 "Hg40 mi
12:00 AM46 °FOvercast.9 mph62%30.00 "Hg40 mi
11:00 PM
Oct 24
46 °FOvercast.9 mph66%30.01 "Hg40 mi
10:00 PM46 °FOvercast.8 mph66%30.03 "Hg40 mi
9:00 PM48 °FOvercast.9 mph62%30.04 "Hg40 mi
8:00 PM48 °FPassing clouds.10 mph62%30.04 "Hg40 mi
7:00 PM50 °FPassing clouds.9 mph58%30.05 "Hg40 mi
6:00 PM52 °FPartly sunny.10 mph50%30.05 "Hg40 mi
5:00 PM54 °FPartly sunny.9 mph47%30.06 "Hg40 mi
4:00 PM55 °FBroken clouds.13 mph44%30.06 "Hg40 mi
3:00 PM55 °FPartly sunny.9 mph44%30.06 "Hg40 mi
2:00 PM54 °FPartly sunny.7 mph47%30.08 "Hg40 mi
1:00 PM52 °FScattered clouds.3 mph47%30.10 "Hg40 mi
12:00 PM48 °FPassing clouds.3 mph58%30.12 "Hg40 mi
11:00 AM45 °FPassing clouds.2 mph66%30.14 "Hg40 mi
10:00 AM41 °FPassing clouds.2 mph76%30.15 "Hg40 mi
9:00 AM39 °FPassing clouds.No wind75%30.14 "Hg40 mi
8:00 AM36 °FPassing clouds.2 mph81%30.11 "Hg40 mi
7:00 AM36 °FPassing clouds.2 mph81%30.10 "Hg40 mi
Weather by CustomWeather, © 2014

See weather overviewHow to use our weather pages